User: anonymous   Login
Location: Unspecified
(0.0000°N, 0.0000°E)
Time: 01:00:28
(UTC+00:00)
Language:

STARLINK-6090 - Orbit

View from above orbital plane
View from above orbital plane
View from above satellite
View from above satellite

Ground track
Ground track

The orbit is defined by the following mean orbital elements,

1 56095U          26144.85689949 +.00000000 +00000-0 +25788-4 0 00007
2 56095  43.0052  91.1222 0001484 273.5783  86.4899 15.27579701    08
Epoch (UTC): 24 May 2026 20:33:56
Eccentricity: 0.0001484
inclination: 43.0052°
perigee height: 482 km
apogee height: 484 km
right ascension of ascending node: 91.1222°
argument of perigee: 273.5783°
revolutions per day: 15.27579701
mean anomaly at epoch: 86.4899°

The dashed part of the orbit path shows where the satellite is in the earth's shadow,  

DLR